User: anonymous   Login
Location: Newark
(25.4297°S, 49.2719°W)
Time: 05:09:46
(UTC+00:00)
Language:

Courier 1B Rocket - Orbit

View from above orbital plane
View from above orbital plane
View from above satellite
View from above satellite

Ground track
Ground track

The orbit data is extracted from the following two-line orbital elements,

1    59U 60013B   19323.15190293  .00000092  00000-0  50110-5 0  9995
2    59  28.2484 223.6113 0189186 312.6339  45.8397 13.52972028918476
Epoch (UTC): 19 November 2019 03:38:44
Eccentricity: 0.0189186
inclination: 28.2484°
perigee height: 920 km
apogee height: 1202 km
right ascension of ascending node: 223.6113°
argument of perigee: 312.6339°
revolutions per day: 13.52972028
mean anomaly at epoch: 45.8397°
orbit number at epoch: 91847

The dashed part of the orbit path shows where the satellite is in the earth's shadow,  

DLR